Location: Erlenbrunn
(49.1717°N, 7.6142°E)
Time: 04:58:05
(UTC+00:00)

Cosmos 2333 Rocket - Pass Details

Date: 25 November 2020
Orbit: 840 x 861 km, 70.8° (Epoch: 24 January)

Event Time Altitude Azimuth Distance (km) Brightness Sun altitude
Rises 16:49:42 0° 230° (SW) 3,402 6.8 -11.4°
Reaches altitude 10° 16:52:17 10° 237° (WSW) 2,467 6.0 -11.8°
Maximum altitude 16:57:39 42° 308° (NW) 1,185 3.3 -12.7°
Drops below altitude 10° 17:03:02 10° 19° (NNE) 2,471 4.3 -13.5°
Enters shadow 17:04:17 - 23° (NNE) 2,922 4.6 -13.7°
